Regional Weather Roundup
Issued by NWS Cleveland, OH

Home | Current Version | Previous Version | Graphics & Text | Print | Product List | Glossary On
Versions: 1 2 3 4 5 6 7 8 9 10 11 12 13 14 15 16 17 18 19 20 21 22 23 24 25 26 27 28 29 30 31 32 33 34 35 36 37 38 39 40 41 42 43 44 45 46 47 48 49 50
000
ASUS41 KCLE 221602
RWRCLE
OHIO REGIONAL WEATHER ROUNDUP
NATIONAL WEATHER SERVICE CLEVELAND, OH
1200 PM EDT TUE JUL 22 2014

NOTE: "FAIR" INDICATES FEW OR NO CLOUDS BELOW 12,000 FEET WITH NO
SIGNIFICANT WEATHER AND/OR OBSTRUCTIONS TO VISIBILITY.

OHZ001>008-015>018-024>027-034-035-043-044-221700-
   NORTHWEST OHIO

CITY           SKY/WX    TMP DP  RH WIND       PRES   REMARKS
DEFIANCE       SUNNY     86  66  51 SW10G18   30.07F
FINDLAY        MOSUNNY   86  65  49 S9        30.08F
TOLEDO EXPRESS SUNNY     85  64  49 SW7G17    30.07F
TOLEDO EXEC    SUNNY     86  63  45 SW9G18    30.07F
LIMA           MOSUNNY   85  69  58 SW9       30.10F
$$

OHZ009>014-019>023-028>033-038-089-221700-
   NORTHEAST OHIO

CITY           SKY/WX    TMP DP  RH WIND       PRES   REMARKS
CLE-HOPKINS    PTSUNNY   84  68  58 SW10      30.11F
CLE-LAKEFRONT  MOSUNNY   80  69  69 NW3       30.07F
CUY CO. ARPT   NOT AVBL
LORAIN-ELYRIA  PTSUNNY   87  67  51 SW13      30.09F HX  90
ASHTABULA      MOSUNNY   82  65  56 SW6       30.12F
AKRON-CANTON   MOSUNNY   85  67  54 VRB5      30.13F
WOOSTER        MOSUNNY   85  71  63 SW10      30.13F HX  90
MANSFIELD      PTSUNNY   84  67  56 W7        30.13F
YOUNGSTOWN     MOSUNNY   84  67  56 W8        30.13F
$$

OHZ042-051>053-060>062-070>072-077>081-221700-
  SOUTHWEST OHIO

CITY           SKY/WX    TMP DP  RH WIND       PRES   REMARKS
CINC-COVINGTON MOSUNNY   85  68  56 S5        30.11F
CINC-LUNKEN    SUNNY     86  71  60 CALM      30.10F HX  91
HAMILTON       SUNNY     86  72  62 VRB6      30.11F HX  92
DAYTON         MOSUNNY   85  70  60 SW9       30.12F
WRIGHT-PAT AFB MOSUNNY   82  71  69 SW6       30.11F
DAYTON GENERAL CLOUDY    85  71  63 VRB7      30.11F HX  90
WILMINGTON     MOSUNNY   85  69  58 S6        30.11F
$$

OHZ036-037-039>041-045>050-054>059-063>069-073>076-082>088-221700-
  CENTRAL AND SOUTHEAST OHIO

CITY           SKY/WX    TMP DP  RH WIND       PRES   REMARKS
COLUMBUS       MOSUNNY   87  68  52 SW5       30.11F HX  90
OSU AIRPORT    MOSUNNY   85  69  58 MISG      30.11F
BOLTON FIELD   PTSUNNY   82  72  69 W5        30.13F
RICKENBACK AFB MOSUNNY   86  65  49 SW6       30.11F
NEWARK         PTSUNNY   84  71  65 VRB6      30.11F
MARION         PTSUNNY   83  68  60 SW10      30.11F
LANCASTER      MOSUNNY   85  70  60 S3        30.12F
ZANESVILLE     SUNNY     81  67  62 VRB3      30.13F
NEW PHILLY     MOSUNNY   84  72  67 S5        30.12F
$$


USA.gov is the U.S. government's official web portal to all federal, state and local government web resources and services.